User: anonymous   Login
Location: Mentone
(34.5413°N, 85.5351°W)
Time: 23:41:40
(UTC-05:00)
Language:

Cosmos 2150 Rocket - Orbit

View from above orbital plane
View from above orbital plane
View from above satellite
View from above satellite

Ground track
Ground track

The orbit data is extracted from the following two-line orbital elements,

1 21419U 91041B   18116.37386670 -.00000058 +00000-0 -11071-4 0  9998
2 21419 074.0382 086.7060 0042087 296.4565 063.2271 14.33895935405097
Epoch (UTC): 26 April 2018 08:58:22
Eccentricity: 0.0042087
inclination: 74.0382°
perigee height: 748 km
apogee height: 809 km
right ascension of ascending node: 86.7060°
argument of perigee: 296.4565°
revolutions per day: 14.33895935
mean anomaly at epoch: 63.2271°
orbit number at epoch: 40509

The dashed part of the orbit path shows where the satellite is in the earth's shadow,  

DLR